Wind_Speed
60 62 64 67 69 72 74 76 78 79 81 81 82 83 83 83 84 84 84 83 83 83 83 83 83 83 83 83 83 82 82 81 80 74 75 74 74 74 74 74 74 74 73
65 67 69 72 75 77 79 81 82 83 84 84 85 85 85 85 84 84 83 82 81 81 80 81 81 81 82 81 80 79 79 78 77 74 73 74 73 73 73 73 73 73 73
70 72 75 77 80 82 83 84 84 85 84 84 84 84 84 83 82 81 80 79 78 77 76 77 76 76 76 75 75 74 74 74 73 72 70 71 71 71 72 72 72 71 71
74 77 79 81 83 84 84 84 84 83 83 83 82 82 80 79 78 77 75 74 73 72 71 71 70 70 70 70 70 69 69 69 69 69 67 67 68 68 69 68 68 68 67
78 80 82 83 84 84 83 83 82 81 81 80 78 76 75 73 71 70 69 68 67 66 65 65 65 64 64 64 64 64 65 65 65 64 63 63 64 64 64 64 65 64 64
81 82 83 83 83 83 82 82 81 79 77 75 73 71 69 66 65 64 64 63 61 60 60 59 59 59 59 60 60 61 62 61 61 61 60 60 59 60 61 61 61 61 60
82 83 83 83 82 82 81 80 77 75 72 70 67 65 62 60 60 60 59 58 57 56 55 54 53 54 55 56 56 57 58 58 59 59 58 57 57 57 59 59 58 58 58
82 82 82 82 82 80 78 75 72 69 67 64 61 59 57 55 55 55 54 53 51 50 50 50 50 50 51 52 52 52 53 54 54 55 54 53 54 56 56 56 56 56 55
82 82 81 81 79 76 73 69 67 64 61 59 57 55 53 51 51 50 49 48 47 46 46 46 47 47 48 49 49 49 49 49 50 51 52 52 52 52 53 53 54 54 54
82 81 79 77 75 72 68 65 63 60 57 55 53 51 50 49 47 47 46 45 44 43 42 43 44 45 45 46 46 46 46 46 47 48 49 49 49 50 51 51 52 52 52
80 78 76 73 70 67 65 62 60 57 54 52 51 49 48 47 45 45 45 44 43 42 41 41 41 42 43 43 44 44 44 44 44 45 45 46 47 48 49 50 50 51 51
77 75 71 68 65 63 61 59 56 54 52 50 48 46 45 44 44 43 43 42 42 41 40 40 40 40 41 41 42 42 42 41 42 42 42 43 44 46 47 47 48 49 49
74 70 67 64 62 60 58 56 53 51 50 48 46 44 42 42 42 42 41 41 41 40 40 39 38 38 38 38 39 39 39 39 39 40 40 40 42 43 44 45 45 46 47
71 67 64 61 58 56 54 52 51 49 48 46 44 43 41 41 40 40 39 39 38 38 38 37 36 36 36 35 35 35 36 36 36 36 37 38 39 40 41 42 42 43 44
67 64 61 59 56 53 50 49 48 46 46 45 44 43 41 39 39 38 37 36 36 36 35 34 34 34 34 33 33 33 33 34 34 35 36 36 36 37 37 38 39 40 40
65 62 59 56 53 51 48 45 45 45 44 43 43 43 41 40 38 37 36 35 34 34 33 33 32 32 32 32 32 33 33 34 34 35 35 35 36 36 37 37 38 38 39
62 59 56 53 51 49 47 44 42 40 40 40 41 41 40 39 37 36 35 34 33 33 32 32 32 31 31 32 32 32 33 33 34 34 35 36 36 37 37 37 38 37 38
58 55 53 51 48 46 44 43 41 39 37 36 38 39 38 37 36 35 34 33 32 32 32 31 31 31 31 32 32 32 32 33 33 34 35 35 35 35 35 36 36 36 37
55 52 49 47 45 43 42 41 40 38 37 37 36 36 37 36 35 35 34 33 32 31 31 30 30 29 29 30 30 30 31 32 32 33 33 33 33 33 33 34 35 36 36
50 48 46 45 43 41 40 39 38 36 36 36 36 35 35 34 33 32 32 31 31 30 29 28 28 28 29 29 29 29 29 29 29 30 30 30 31 31 32 33 34 35 36
47 44 44 43 41 39 38 37 36 35 35 35 34 34 34 32 31 30 30 30 29 28 28 27 27 28 28 28 28 27 27 27 27 28 28 29 30 30 31 31 32 33 34
44 43 41 40 38 36 36 35 35 35 34 34 33 33 32 31 30 29 29 28 28 28 27 27 27 27 27 27 26 26 26 26 27 27 28 28 29 29 30 31 31 32 32
42 41 39 37 36 35 35 35 34 34 34 33 32 31 31 30 29 29 29 28 28 28 28 27 27 27 26 26 25 25 25 26 26 26 27 27 27 28 28 29 29 30 31
40 38 37 35 34 34 34 33 33 33 33 32 31 30 30 29 29 28 28 28 28 28 27 26 26 26 25 25 24 24 24 25 25 25 25 25 25 26 27 28 29 30 30
37 36 35 33 32 32 32 32 32 32 32 31 29 29 29 28 28 28 27 27 26 26 25 25 25 24 23 23 24 24 24 24 24 24 24 24 24 25 26 27 28 29 30
34 34 33 32 31 31 31 30 30 30 30 29 28 28 28 27 26 26 26 25 25 25 25 25 25 24 24 24 24 24 24 25 25 25 25 25 25 25 25 26 27 27 28
Wind_Direction
304 303 303 302 301 300 299 298 297 296 294 293 291 290 289 288 287 285 284 282 280 278 277 276 274 273 273 272 272 272 271 271 271 269 269 268 268 268 268 269 269 269 269
304 304 303 302 302 301 300 299 298 297 295 294 293 292 291 289 288 286 285 283 281 280 278 276 275 274 273 273 272 272 271 271 270 269 267 267 267 268 268 269 269 269 269
304 304 304 303 303 302 301 300 299 298 297 296 294 293 292 290 289 287 285 283 282 281 279 278 277 275 274 273 272 272 271 271 271 270 268 268 267 268 268 269 270 269 268
305 305 305 304 304 303 303 302 301 300 298 297 296 295 293 292 290 288 286 285 283 282 280 279 277 276 275 274 272 272 271 271 271 271 270 269 268 268 268 269 269 268 267
306 306 306 306 306 305 304 303 303 302 301 299 298 296 295 293 292 290 288 286 284 283 281 280 278 276 275 274 273 272 272 271 271 271 270 269 269 268 268 267 267 267 266
307 308 308 307 307 306 305 305 304 303 302 301 299 298 296 295 293 291 290 288 286 285 283 281 280 278 276 275 274 273 272 271 270 270 269 269 268 268 267 267 267 267 266
309 309 309 308 308 308 307 307 306 305 303 302 301 300 298 295 293 292 291 289 288 286 284 281 280 278 277 276 275 274 274 273 272 271 269 269 268 267 267 268 267 267 266
311 311 310 310 309 309 309 308 307 306 305 304 303 301 299 297 295 294 292 291 290 289 286 284 281 280 279 278 276 275 275 274 273 272 270 268 268 268 268 268 267 267 266
312 312 311 311 311 311 310 309 308 307 306 306 305 303 302 300 298 296 294 293 292 290 287 285 284 282 280 279 277 276 275 274 273 272 271 269 268 268 268 268 268 268 267
313 313 313 312 312 311 311 310 309 308 307 307 306 305 304 302 300 299 297 295 294 291 289 287 285 283 282 280 279 277 276 274 272 272 271 270 269 268 268 268 268 269 268
314 314 313 313 312 312 312 311 310 309 308 308 307 306 305 303 302 301 299 297 295 293 291 289 287 285 284 282 281 279 277 275 273 272 272 271 270 270 269 269 269 269 268
314 314 314 313 313 312 312 312 311 310 310 309 308 307 306 304 303 302 300 298 297 295 293 291 289 287 286 284 282 281 279 277 275 273 272 272 271 270 270 270 270 269 269
315 315 314 314 314 313 313 312 312 311 311 310 310 309 308 306 304 302 300 299 297 296 295 293 291 290 288 286 283 281 280 278 277 275 274 273 272 271 271 271 270 270 270
315 315 315 314 314 313 313 312 312 312 312 311 310 310 310 309 307 304 302 300 299 297 296 295 294 291 290 288 285 283 281 279 278 277 275 274 274 273 272 272 272 272 272
315 315 315 314 313 313 313 312 312 313 313 312 312 312 312 311 310 308 305 303 301 300 298 297 295 293 291 289 287 285 283 281 279 278 277 275 275 274 274 273 273 273 273
315 315 314 314 313 313 312 312 312 313 313 312 313 314 314 314 313 311 309 307 305 302 301 299 297 295 293 290 287 286 284 283 281 279 278 276 275 275 275 275 275 274 274
316 315 315 314 314 313 313 312 312 312 312 312 313 314 314 314 314 313 312 310 308 306 303 301 299 297 295 293 290 288 286 284 282 281 279 278 277 276 275 275 275 275 274
316 315 315 315 315 315 314 314 314 313 313 312 313 313 314 314 314 314 312 311 309 308 306 304 301 299 298 296 293 290 288 286 284 282 281 279 277 276 275 275 275 276 275
316 316 315 316 316 315 315 315 315 315 315 315 315 314 314 314 314 313 313 311 310 308 308 307 305 303 302 300 298 295 292 289 286 284 282 280 278 277 276 277 277 277 276
316 316 316 316 316 316 316 316 316 316 316 317 317 316 316 315 314 314 314 313 312 311 309 308 307 306 305 304 302 300 297 293 290 287 284 282 280 279 279 278 278 278 277
316 316 316 316 316 316 316 317 317 317 318 318 318 319 319 318 318 317 317 316 315 313 312 311 309 309 308 306 305 303 300 298 295 291 288 284 282 282 281 280 279 279 279
316 316 316 316 316 316 317 317 318 318 319 319 319 319 320 320 320 320 320 319 318 317 315 313 312 311 310 308 306 304 303 302 300 296 291 288 286 284 283 282 281 280 279
317 317 317 317 316 316 317 317 318 319 319 319 319 320 320 320 320 320 319 319 319 318 317 315 314 313 312 310 308 307 306 306 304 301 297 293 289 287 285 284 283 283 282
316 317 317 317 316 316 317 317 318 319 320 320 320 320 321 321 321 321 321 320 320 320 319 317 316 315 314 313 312 311 310 309 308 306 303 298 294 291 289 287 287 286 285
316 317 317 317 317 317 317 318 319 320 321 321 321 321 321 321 322 322 322 323 323 322 322 320 319 317 316 315 315 314 313 312 311 309 307 304 299 296 294 291 290 289 288
316 317 317 317 317 317 318 319 320 321 322 322 322 322 322 322 324 325 325 325 326 325 324 322 321 319 317 317 316 315 313 312 311 311 309 306 304 300 298 296 295 293 293
Height
5689 5682 5675 5668 5660 5652 5643 5635 5626 5618 5609 5601 5592 5585 5577 5570 5562 5555 5549 5544 5538 5535 5530 5526 5524 5520 5516 5514 5512 5510 5509 5508 5511 5523 5520 5519 5517 5516 5515 5515 5516 5516 5517
5673 5666 5658 5649 5641 5632 5622 5613 5603 5594 5584 5575 5567 5559 5551 5543 5536 5528 5522 5517 5512 5508 5504 5499 5498 5494 5491 5490 5487 5486 5486 5485 5486 5494 5497 5495 5495 5494 5493 5493 5494 5494 5495
5657 5648 5639 5630 5620 5610 5600 5589 5579 5569 5560 5550 5541 5533 5525 5517 5509 5502 5496 5491 5486 5483 5479 5475 5473 5469 5467 5465 5463 5463 5463 5463 5463 5468 5474 5472 5472 5473 5471 5471 5471 5472 5472
5639 5629 5619 5609 5598 5587 5576 5565 5555 5544 5535 5525 5516 5507 5499 5491 5484 5477 5471 5466 5462 5459 5455 5451 5449 5446 5444 5442 5441 5442 5441 5441 5441 5444 5449 5450 5450 5450 5449 5450 5449 5449 5450
5620 5609 5598 5587 5576 5564 5553 5542 5532 5521 5511 5501 5492 5483 5475 5467 5460 5453 5448 5444 5440 5437 5433 5430 5427 5425 5423 5421 5421 5421 5420 5420 5421 5422 5426 5427 5428 5428 5429 5428 5427 5428 5429
5600 5589 5577 5566 5554 5542 5531 5520 5509 5499 5488 5478 5469 5461 5454 5446 5439 5432 5427 5423 5420 5417 5414 5411 5408 5405 5403 5402 5401 5401 5401 5401 5401 5402 5404 5406 5408 5407 5407 5406 5407 5408 5411
5580 5568 5556 5544 5533 5521 5510 5499 5488 5477 5468 5459 5450 5441 5434 5428 5420 5414 5408 5404 5401 5398 5395 5392 5390 5388 5385 5384 5383 5382 5382 5382 5383 5383 5385 5387 5387 5387 5386 5387 5388 5389 5392
5560 5548 5535 5523 5512 5501 5489 5478 5468 5458 5449 5440 5432 5424 5417 5411 5403 5397 5392 5388 5385 5382 5378 5375 5373 5371 5369 5367 5366 5366 5365 5365 5364 5365 5367 5368 5367 5367 5368 5369 5369 5371 5373
5540 5528 5516 5503 5492 5481 5471 5460 5450 5440 5432 5424 5416 5408 5401 5396 5389 5383 5377 5373 5370 5367 5364 5360 5357 5356 5354 5351 5350 5350 5349 5349 5347 5347 5348 5350 5350 5350 5350 5351 5352 5353 5356
5522 5510 5497 5484 5472 5462 5452 5443 5434 5424 5416 5409 5402 5394 5387 5381 5375 5369 5364 5360 5357 5354 5350 5347 5343 5341 5339 5336 5335 5334 5334 5333 5332 5332 5332 5333 5333 5333 5334 5335 5336 5336 5338
5503 5491 5480 5467 5455 5445 5436 5427 5418 5410 5403 5395 5388 5382 5375 5368 5363 5357 5351 5346 5343 5340 5337 5334 5331 5327 5325 5322 5321 5319 5319 5318 5317 5317 5317 5317 5317 5318 5318 5318 5319 5320 5321
5486 5475 5463 5452 5441 5430 5421 5413 5404 5396 5389 5382 5375 5370 5363 5356 5350 5345 5340 5335 5330 5327 5324 5321 5318 5315 5312 5309 5307 5306 5304 5303 5303 5303 5303 5303 5303 5302 5302 5302 5302 5303 5304
5470 5458 5448 5437 5427 5417 5408 5399 5392 5384 5376 5370 5363 5357 5352 5346 5339 5333 5328 5323 5319 5315 5311 5308 5305 5302 5299 5297 5295 5293 5291 5290 5289 5289 5289 5289 5288 5288 5287 5287 5287 5287 5287
5453 5443 5433 5423 5414 5405 5396 5387 5379 5372 5365 5358 5352 5346 5341 5335 5329 5323 5318 5313 5308 5303 5300 5297 5293 5290 5287 5285 5283 5281 5279 5278 5277 5276 5276 5275 5275 5274 5273 5273 5272 5272 5272
5438 5428 5418 5409 5400 5393 5385 5376 5368 5361 5353 5346 5340 5335 5329 5324 5318 5312 5307 5302 5298 5293 5289 5286 5283 5280 5277 5274 5272 5270 5268 5267 5266 5264 5263 5262 5261 5261 5260 5259 5259 5258 5258
5422 5413 5404 5396 5388 5380 5373 5367 5359 5350 5344 5336 5330 5324 5318 5313 5307 5302 5297 5292 5287 5283 5279 5276 5273 5270 5267 5264 5262 5260 5258 5256 5254 5252 5251 5250 5249 5248 5248 5247 5246 5245 5245
5408 5399 5391 5383 5375 5367 5360 5354 5349 5343 5335 5328 5321 5315 5309 5303 5298 5293 5288 5283 5278 5273 5270 5266 5263 5260 5257 5254 5251 5249 5247 5244 5242 5241 5239 5238 5237 5236 5235 5234 5233 5232 5232
5395 5386 5378 5370 5363 5356 5349 5343 5336 5331 5327 5321 5314 5307 5301 5295 5290 5284 5279 5274 5270 5265 5261 5257 5253 5250 5247 5244 5241 5238 5236 5233 5231 5229 5227 5226 5224 5223 5222 5221 5220 5220 5219
5383 5375 5367 5360 5353 5346 5339 5333 5327 5321 5316 5311 5306 5300 5293 5287 5282 5276 5271 5266 5261 5257 5252 5248 5245 5241 5238 5234 5231 5228 5225 5222 5220 5217 5215 5214 5212 5211 5210 5209 5208 5207 5206
5372 5364 5356 5350 5343 5337 5330 5324 5318 5313 5307 5302 5296 5291 5285 5280 5274 5269 5263 5258 5253 5248 5244 5240 5236 5233 5229 5225 5222 5218 5215 5212 5209 5206 5204 5203 5201 5200 5198 5197 5196 5194 5193
5361 5354 5347 5340 5334 5328 5322 5316 5310 5305 5299 5294 5288 5283 5277 5272 5266 5261 5256 5250 5245 5241 5236 5232 5228 5224 5220 5217 5213 5209 5206 5203 5200 5197 5194 5192 5190 5189 5187 5186 5184 5182 5181
5351 5344 5338 5331 5325 5320 5314 5308 5303 5297 5292 5287 5281 5276 5270 5265 5259 5254 5249 5244 5238 5234 5229 5225 5221 5217 5213 5209 5205 5201 5198 5195 5191 5188 5185 5182 5180 5178 5176 5175 5173 5171 5169
5341 5335 5329 5323 5317 5312 5307 5301 5295 5290 5285 5279 5274 5269 5264 5258 5253 5248 5243 5237 5232 5227 5222 5218 5213 5209 5205 5201 5197 5194 5190 5187 5183 5179 5176 5173 5170 5168 5166 5164 5162 5160 5158
5332 5326 5321 5315 5310 5305 5299 5294 5289 5283 5278 5273 5267 5262 5257 5252 5247 5242 5236 5231 5226 5220 5215 5211 5206 5202 5198 5194 5190 5187 5183 5179 5175 5171 5168 5165 5162 5159 5157 5155 5152 5150 5147
5324 5318 5313 5307 5302 5297 5292 5287 5282 5277 5271 5266 5261 5256 5251 5246 5241 5235 5230 5225 5219 5214 5209 5204 5200 5196 5192 5188 5184 5180 5176 5172 5168 5164 5160 5157 5154 5151 5148 5145 5143 5140 5137
5316 5310 5305 5300 5295 5290 5285 5280 5275 5270 5265 5260 5255 5250 5245 5240 5235 5230 5224 5219 5214 5209 5203 5199 5194 5190 5186 5181 5177 5173 5169 5165 5161 5157 5153 5149 5146 5142 5139 5136 5133 5130 5127